Location: Milton Keynes
(52.0316°N, 0.7531°W)
Time: 10:52:41
(UTC+00:00)

N. Korean satellite - Pass Details

Date: 27 January 2019
Orbit: 456 x 510 km, 97.2° (Epoch: 23 February)

Event Time Altitude Azimuth Distance (km) Brightness Sun altitude
Rises 17:19:27 0° 167° (SSE) 2,600 10.4 -6.1°
Reaches altitude 10° 17:21:31 10° 169° (SSE) 1,724 9.5 -6.4°
Maximum altitude 17:25:15 82° 258° (WSW) 524 6.8 -7.0°
Drops below altitude 10° 17:29:02 10° 345° (NNW) 1,746 9.3 -7.5°
Sets 17:31:08 0° 347° (NNW) 2,636 10.2 -7.8°
